Location: St Paul
(33.9360°N, 83.4200°W)
Time: 08:26:52
(UTC-04:00)

METEOR-M - Visible Passes

Search period start: 16 October 2019 00:00
Search period end: 26 October 2019 00:00
Orbit: 816 x 819 km, 98.4° (Epoch: 16 October)

Date Brightness Start Highest point End Pass type
(mag) Time Alt. Az. Time Alt. Az. Time Alt. Az.
16 Oct 5.5 06:27:25 10° NNE 06:32:27 41° E 06:37:27 10° SSE visible
16 Oct 7.3 19:26:56 10° SW 19:30:34 18° W 19:34:13 10° NW visible
17 Oct 6.4 06:06:34 10° NE 06:10:56 25° E 06:15:16 10° SSE visible
18 Oct 7.1 05:46:16 10° ENE 05:49:20 15° E 05:52:24 10° SE visible
19 Oct 4.1 07:02:56 10° NNE 07:08:18 86° WNW 07:13:38 10° SSW visible
20 Oct 4.8 06:41:37 10° NNE 06:46:53 58° E 06:52:07 10° S visible
20 Oct 7.6 19:42:49 10° WSW 19:45:07 13° W 19:47:25 10° WNW visible
21 Oct 5.8 06:20:32 10° NNE 06:25:24 35° E 06:30:15 10° SSE visible
21 Oct 7.2 19:19:30 10° SW 19:23:30 21° W 19:27:31 10° NW visible
22 Oct 6.7 05:59:47 10° NE 06:03:51 22° E 06:07:54 10° SE visible
23 Oct 7.3 05:39:50 10° ENE 05:42:16 13° E 05:44:40 10° ESE visible
24 Oct 4.3 06:55:56 10° NNE 07:01:17 82° ESE 07:06:37 10° S visible
25 Oct 5.1 06:34:40 10° NNE 06:39:51 50° E 06:45:00 10° S visible
25 Oct 7.4 19:35:03 10° SW 19:38:01 15° W 19:41:01 10° WNW visible
